Location: The Saddle
(36.8333°N, 80.3417°W)
Time: 13:00:11
(UTC-05:00)

CUTE-I - Visible Passes

Search period start: 07 November 2025 00:00
Search period end: 17 November 2025 00:00
Orbit: 804 x 819 km, 98.7° (Epoch: 06 November)

Date Brightness Start Highest point End Pass type
(mag) Time Alt. Az. Time Alt. Az. Time Alt. Az.
07 Nov ? 17:58:02 10° SSE 18:03:20 82° WSW 18:08:40 10° NNW visible
08 Nov ? 06:16:27 10° NNE 06:21:32 46° E 06:26:35 10° S visible
08 Nov ? 17:34:53 10° SSE 17:40:04 60° ENE 17:45:17 10° N visible
08 Nov ? 19:17:27 10° SW 19:20:19 15° W 19:23:12 10° WNW visible
09 Nov ? 05:53:38 10° NE 05:58:06 28° E 06:02:34 10° SSE visible
09 Nov ? 18:52:31 10° SSW 18:56:48 25° W 19:01:07 10° NW visible
10 Nov ? 05:31:21 10° NE 05:34:37 16° E 05:37:52 10° SE visible
10 Nov ? 18:28:24 10° S 18:33:23 42° W 18:38:22 10° NNW visible
11 Nov ? 18:04:45 10° S 18:10:01 71° WSW 18:15:18 10° NNW visible
12 Nov ? 06:23:02 10° NNE 06:28:13 54° E 06:33:23 10° S visible
12 Nov ? 17:41:29 10° SSE 17:46:44 70° ENE 17:51:59 10° N visible
12 Nov ? 19:24:56 10° WSW 19:27:04 12° W 19:29:12 10° WNW visible
13 Nov ? 06:00:07 10° NE 06:04:49 32° E 06:09:30 10° SSE visible
13 Nov ? 18:59:33 10° SW 19:03:32 21° W 19:07:31 10° NW visible
14 Nov ? 05:37:38 10° NE 05:41:20 19° E 05:45:02 10° SE visible
14 Nov ? 18:35:15 10° SSW 18:40:04 36° W 18:44:55 10° NNW visible
15 Nov ? 05:16:34 10° ENE 05:17:47 11° E 05:19:00 10° ESE visible
15 Nov ? 18:11:28 10° S 18:16:41 61° WSW 18:21:55 10° NNW visible
16 Nov ? 06:29:38 10° NNE 06:34:53 63° ESE 06:40:08 10° S visible
16 Nov ? 17:48:05 10° SSE 17:53:22 80° ENE 17:58:39 10° N visible
16 Nov ? 19:33:05 10° W 19:33:48 10° W 19:34:31 10° W visible
